"read_dt","SO2 (ppb)","flags","PMT voltage (V)","lamp voltage (V)","lamp intensity (Hz)","internal temp (C)","react chamber temp (C)","sample flow (l/min)","pres (mmHg)","SO2 bkg (ppb)","SO2 coefficient"
2015-08-16 00:00:00,1568E-3,5C000000,-0724,0822,12527,026.7,045.4,0.479,740.6,01.18,0.508
2015-08-16 00:01:00,1534E-3,5C000000,-0724,0822,12126,026.7,045.4,0.479,740.5,01.18,0.508
2015-08-16 00:02:00,1571E-3,5C000000,-0724,0823,12300,026.7,045.4,0.480,740.5,01.18,0.508
2015-08-16 00:03:00,1626E-3,5C000000,-0724,0822,11168,026.7,045.4,0.479,740.6,01.18,0.508
2015-08-16 00:04:00,1606E-3,5C000000,-0724,0822,12199,026.7,045.4,0.479,740.6,01.18,0.508
2015-08-16 00:05:00,1539E-3,5C000000,-0724,0822,12294,026.7,045.4,0.479,740.6,01.18,0.508
2015-08-16 00:06:00,1634E-3,5C000000,-0724,0822,12305,026.7,045.4,0.480,740.5,01.18,0.508
2015-08-16 00:07:00,1676E-3,5C000000,-0724,0822,12194,026.7,045.4,0.479,740.5,01.18,0.508
2015-08-16 00:08:00,1633E-3,5C000000,-0724,0822,12310,026.7,045.4,0.479,740.5,01.18,0.508
2015-08-16 00:09:00,1641E-3,5C000000,-0724,0821,12305,026.7,045.4,0.479,740.6,01.18,0.508
2015-08-16 00:10:00,1653E-3,5C000000,-0724,0821,12352,026.7,045.4,0.480,740.5,01.18,0.508
2015-08-16 00:11:00,1590E-3,5C000000,-0724,0822,12306,026.7,045.4,0.479,740.5,01.18,0.508
2015-08-16 00:12:00,1631E-3,5C000000,-0724,0821,12105,026.7,045.4,0.479,740.5,01.18,0.508
2015-08-16 00:13:00,1714E-3,5C000000,-0724,0821,12290,026.7,045.4,0.479,740.5,01.18,0.508
2015-08-16 00:14:00,1571E-3,5C000000,-0724,0821,12243,026.7,045.4,0.480,740.5,01.18,0.508
2015-08-16 00:15:00,1604E-3,5C000000,-0724,0822,12263,026.7,045.4,0.479,740.5,01.18,0.508
2015-08-16 00:16:00,1579E-3,5C000000,-0724,0821,12245,026.7,045.4,0.479,740.5,01.18,0.508
2015-08-16 00:17:00,1567E-3,5C000000,-0724,0821,12173,026.8,045.4,0.479,740.6,01.18,0.508
2015-08-16 00:18:00,1601E-3,5C000000,-0724,0821,12229,026.7,045.4,0.480,740.5,01.18,0.508
2015-08-16 00:19:00,1624E-3,5C000000,-0724,0821,12236,026.7,045.4,0.479,740.5,01.18,0.508
2015-08-16 00:20:00,1574E-3,5C000000,-0724,0822,12418,026.7,045.4,0.479,740.6,01.18,0.508
2015-08-16 00:21:00,1588E-3,5C000000,-0724,0821,12322,026.7,045.4,0.479,740.4,01.18,0.508
2015-08-16 00:22:00,1666E-3,5C000000,-0724,0822,12203,026.7,045.4,0.480,740.2,01.18,0.508
2015-08-16 00:23:00,1545E-3,5C000000,-0724,0821,12034,026.8,045.4,0.479,740.5,01.18,0.508
2015-08-16 00:24:00,1569E-3,5C000000,-0724,0822,12236,026.7,045.4,0.479,740.6,01.18,0.508
2015-08-16 00:25:00,1647E-3,5C000000,-0724,0822,12263,026.8,045.4,0.479,740.6,01.18,0.508
2015-08-16 00:26:00,1635E-3,5C000000,-0724,0821,12287,026.7,045.4,0.480,740.5,01.18,0.508
2015-08-16 00:27:00,1570E-3,5C000000,-0724,0821,12096,026.7,045.4,0.479,740.6,01.18,0.508
2015-08-16 00:28:00,1711E-3,5C000000,-0724,0821,12114,026.7,045.4,0.479,740.5,01.18,0.508
2015-08-16 00:29:00,1764E-3,5C000000,-0724,0821,12317,026.7,045.4,0.479,740.5,01.18,0.508
2015-08-16 00:30:00,1617E-3,5C000000,-0724,0821,12305,026.8,045.4,0.479,740.3,01.18,0.508
2015-08-16 00:31:00,1671E-3,5C000000,-0724,0820,12218,026.8,045.4,0.480,740.5,01.18,0.508
2015-08-16 00:32:00,1696E-3,5C000000,-0724,0822,12243,026.8,045.4,0.479,740.5,01.18,0.508
2015-08-16 00:33:00,1655E-3,5C000000,-0724,0821,12192,026.8,045.4,0.479,740.4,01.18,0.508
2015-08-16 00:34:00,1706E-3,5C000000,-0724,0823,12318,026.8,045.4,0.479,740.5,01.18,0.508
2015-08-16 00:35:00,1579E-3,5C000000,-0724,0821,12292,026.8,045.4,0.479,740.2,01.18,0.508
2015-08-16 00:36:00,1621E-3,5C000000,-0724,0821,12151,026.8,045.4,0.479,740.4,01.18,0.508
2015-08-16 00:37:00,1647E-3,5C000000,-0724,0822,12263,026.8,045.4,0.479,740.5,01.18,0.508
2015-08-16 00:38:00,1596E-3,5C000000,-0724,0821,12185,026.9,045.4,0.479,740.5,01.18,0.508
2015-08-16 00:39:00,1726E-3,5C000000,-0724,0821,12223,026.8,045.4,0.479,740.4,01.18,0.508
2015-08-16 00:40:00,1653E-3,5C000000,-0724,0822,12177,026.8,045.4,0.479,740.3,01.18,0.508
2015-08-16 00:41:00,1593E-3,5C000000,-0724,0822,12198,026.9,045.4,0.479,740.4,01.18,0.508
2015-08-16 00:42:00,1610E-3,5C000000,-0724,0822,12208,026.8,045.4,0.479,740.2,01.18,0.508
2015-08-16 00:43:00,1498E-3,5C000000,-0724,0821,12191,026.8,045.4,0.479,740.2,01.18,0.508
2015-08-16 00:44:00,1593E-3,5C000000,-0724,0821,12217,026.9,045.4,0.479,740.2,01.18,0.508
2015-08-16 00:45:00,1668E-3,5C000000,-0724,0821,12255,026.9,045.4,0.479,740.2,01.18,0.508
2015-08-16 00:46:00,1681E-3,5C000000,-0724,0822,12350,026.9,045.4,0.479,740.1,01.18,0.508
2015-08-16 00:47:00,1564E-3,5C000000,-0724,0820,12227,026.9,045.4,0.479,740.1,01.18,0.508
2015-08-16 00:48:00,1635E-3,5C000000,-0724,0823,12444,026.9,045.4,0.479,740.1,01.18,0.508
2015-08-16 00:49:00,1698E-3,5C000000,-0724,0822,12226,026.9,045.4,0.479,740.0,01.18,0.508
2015-08-16 00:50:00,1610E-3,5C000000,-0724,0821,12284,026.9,045.4,0.479,740.0,01.18,0.508
2015-08-16 00:51:00,1701E-3,5C000000,-0724,0821,12282,026.9,045.4,0.479,739.9,01.18,0.508
2015-08-16 00:52:00,1499E-3,5C000000,-0724,0824,11341,026.9,045.4,0.479,740.0,01.18,0.508
2015-08-16 00:53:00,1564E-3,5C000000,-0724,0821,12326,026.9,045.4,0.479,740.0,01.18,0.508
2015-08-16 00:54:00,1566E-3,5C000000,-0724,0821,12312,026.9,045.4,0.479,740.0,01.18,0.508
2015-08-16 00:55:00,1550E-3,5C000000,-0724,0822,12298,026.9,045.4,0.479,740.0,01.18,0.508
2015-08-16 00:56:00,1640E-3,5C000000,-0724,0822,12293,026.9,045.4,0.479,739.8,01.18,0.508
2015-08-16 00:57:00,1479E-3,5C000000,-0724,0822,12397,026.9,045.4,0.479,740.0,01.18,0.508
2015-08-16 00:58:00,1576E-3,5C000000,-0724,0823,12453,026.9,045.4,0.479,739.9,01.18,0.508
2015-08-16 00:59:00,1673E-3,5C000000,-0724,0822,12321,026.9,045.4,0.479,740.0,01.18,0.508
2015-08-16 01:00:00,1596E-3,5C000000,-0724,0822,12382,026.9,045.4,0.479,739.8,01.18,0.508
2015-08-16 01:01:00,1729E-3,5C000000,-0724,0821,12212,026.9,045.4,0.479,739.9,01.18,0.508
2015-08-16 01:02:00,1627E-3,5C000000,-0724,0821,12422,026.9,045.4,0.479,739.9,01.18,0.508
2015-08-16 01:03:00,1724E-3,5C000000,-0724,0821,12163,026.9,045.4,0.479,739.8,01.18,0.508
2015-08-16 01:04:00,1647E-3,5C000000,-0724,0821,12441,026.9,045.4,0.479,739.8,01.18,0.508
2015-08-16 01:05:00,1625E-3,5C000000,-0724,0822,12458,026.9,045.4,0.479,739.8,01.18,0.508
2015-08-16 01:06:00,1644E-3,5C000000,-0724,0821,12510,026.9,045.4,0.479,739.9,01.18,0.508
2015-08-16 01:07:00,1569E-3,5C000000,-0724,0821,12259,026.9,045.4,0.479,739.9,01.18,0.508
2015-08-16 01:08:00,1504E-3,5C000000,-0724,0822,12352,026.9,045.4,0.479,740.1,01.18,0.508
2015-08-16 01:09:00,1619E-3,5C000000,-0724,0821,12247,026.9,045.4,0.479,740.0,01.18,0.508
2015-08-16 01:10:00,1649E-3,5C000000,-0724,0821,12295,026.9,045.4,0.479,740.1,01.18,0.508
2015-08-16 01:11:00,1569E-3,5C000000,-0724,0822,12162,026.9,045.4,0.479,740.1,01.18,0.508
2015-08-16 01:12:00,1558E-3,5C000000,-0724,0821,12306,026.9,045.4,0.479,740.2,01.18,0.508
2015-08-16 01:13:00,1598E-3,5C000000,-0724,0820,12177,026.9,045.4,0.479,740.1,01.18,0.508
2015-08-16 01:14:00,1690E-3,5C000000,-0724,0822,12401,027.0,045.4,0.479,740.2,01.18,0.508
2015-08-16 01:15:00,1587E-3,5C000000,-0724,0821,12220,026.9,045.4,0.479,740.2,01.18,0.508
2015-08-16 01:16:00,1545E-3,5C000000,-0724,0822,12108,026.9,045.4,0.479,740.5,01.18,0.508
2015-08-16 01:17:00,1639E-3,5C000000,-0724,0823,12302,027.0,045.4,0.479,740.5,01.18,0.508
2015-08-16 01:18:00,1665E-3,5C000000,-0724,0821,12273,026.9,045.4,0.479,740.5,01.18,0.508
2015-08-16 01:19:00,1710E-3,5C000000,-0724,0822,12371,026.9,045.4,0.479,740.5,01.18,0.508
2015-08-16 01:20:00,1764E-3,5C000000,-0724,0822,12315,026.9,045.4,0.479,740.5,01.18,0.508
2015-08-16 01:21:00,1625E-3,5C000000,-0724,0822,12379,026.9,045.4,0.479,740.6,01.18,0.508
2015-08-16 01:22:00,1649E-3,5C000000,-0724,0822,12395,026.9,045.4,0.479,740.5,01.18,0.508
2015-08-16 01:23:00,1666E-3,5C000000,-0724,0821,12084,026.9,045.4,0.479,740.6,01.18,0.508
2015-08-16 01:24:00,1613E-3,5C000000,-0724,0821,12080,026.9,045.4,0.479,740.5,01.18,0.508
2015-08-16 01:25:00,1693E-3,5C000000,-0724,0822,12242,026.9,045.4,0.479,740.5,01.18,0.508
2015-08-16 01:26:00,1543E-3,5C000000,-0724,0820,12086,027.0,045.4,0.479,740.5,01.18,0.508
2015-08-16 01:27:00,1659E-3,5C000000,-0724,0822,12446,026.9,045.4,0.479,740.6,01.18,0.508
2015-08-16 01:28:00,1584E-3,5C000000,-0724,0822,12277,026.9,045.4,0.479,740.5,01.18,0.508
2015-08-16 01:29:00,1590E-3,5C000000,-0724,0821,12293,026.9,045.4,0.479,740.6,01.18,0.508
2015-08-16 01:30:00,1551E-3,5C000000,-0724,0822,12287,026.9,045.4,0.479,740.6,01.18,0.508
2015-08-16 01:31:00,1600E-3,5C000000,-0724,0821,12232,026.9,045.4,0.479,740.6,01.18,0.508
2015-08-16 01:32:00,1550E-3,5C000000,-0724,0821,12283,026.9,045.4,0.479,740.6,01.18,0.508
2015-08-16 01:33:00,1605E-3,5C000000,-0724,0822,12336,026.9,045.4,0.479,740.6,01.18,0.508
2015-08-16 01:34:00,1609E-3,5C000000,-0724,0821,12314,026.9,045.4,0.479,740.5,01.18,0.508
2015-08-16 01:35:00,1554E-3,5C000000,-0724,0822,12375,027.0,045.4,0.479,740.6,01.18,0.508
2015-08-16 01:36:00,1762E-3,5C000000,-0724,0822,12491,026.9,045.4,0.479,740.5,01.18,0.508
2015-08-16 01:37:00,1613E-3,5C000000,-0724,0824,12520,026.9,045.4,0.479,740.6,01.18,0.508
2015-08-16 01:38:00,1580E-3,5C000000,-0724,0821,12241,027.0,045.4,0.479,740.5,01.18,0.508
2015-08-16 01:39:00,1674E-3,5C000000,-0724,0821,12296,026.9,045.4,0.479,740.5,01.18,0.508
2015-08-16 01:40:00,1548E-3,5C000000,-0724,0822,12312,026.9,045.4,0.479,740.5,01.18,0.508
2015-08-16 01:41:00,1713E-3,5C000000,-0724,0821,12203,026.9,045.4,0.479,740.5,01.18,0.508
2015-08-16 01:42:00,1655E-3,5C000000,-0724,0821,12273,027.0,045.4,0.479,740.5,01.18,0.508
2015-08-16 01:43:00,1589E-3,5C000000,-0724,0821,12249,026.9,045.4,0.479,740.6,01.18,0.508
2015-08-16 01:44:00,1608E-3,5C000000,-0724,0822,12190,027.0,045.4,0.479,740.6,01.18,0.508
2015-08-16 01:45:00,1512E-3,5C000000,-0724,0822,12272,027.0,045.4,0.479,740.5,01.18,0.508
2015-08-16 01:46:00,1556E-3,5C000000,-0724,0822,12261,027.0,045.4,0.479,740.5,01.18,0.508
2015-08-16 01:47:00,1592E-3,5C000000,-0724,0821,12240,027.0,045.4,0.479,740.6,01.18,0.508
2015-08-16 01:48:00,1622E-3,5C000000,-0724,0822,12326,027.0,045.4,0.479,740.5,01.18,0.508
2015-08-16 01:49:00,1681E-3,5C000000,-0724,0822,12384,027.0,045.4,0.479,740.5,01.18,0.508
2015-08-16 01:50:00,1570E-3,5C000000,-0724,0822,12258,027.0,045.4,0.479,740.5,01.18,0.508
2015-08-16 01:51:00,1556E-3,5C000000,-0724,0822,12281,027.0,045.4,0.479,740.6,01.18,0.508
2015-08-16 01:52:00,1759E-3,5C000000,-0724,0821,12356,027.0,045.4,0.479,740.5,01.18,0.508
2015-08-16 01:53:00,1575E-3,5C000000,-0724,0821,12143,027.0,045.4,0.479,740.5,01.18,0.508
2015-08-16 01:54:00,1724E-3,5C000000,-0724,0822,12271,026.9,045.4,0.479,740.5,01.18,0.508
2015-08-16 01:55:00,1652E-3,5C000000,-0724,0822,12304,027.0,045.4,0.479,740.6,01.18,0.508
2015-08-16 01:56:00,1499E-3,5C000000,-0724,0821,12324,027.0,045.4,0.479,740.5,01.18,0.508
2015-08-16 01:57:00,1491E-3,5C000000,-0724,0822,12167,027.0,045.4,0.479,740.6,01.18,0.508
2015-08-16 01:58:00,1623E-3,5C000000,-0724,0821,12470,027.0,045.4,0.479,740.6,01.18,0.508
2015-08-16 01:59:00,1682E-3,5C000000,-0724,0822,12424,027.0,045.4,0.479,740.5,01.18,0.508
2015-08-16 02:00:00,1538E-3,5C000000,-0724,0821,12407,027.0,045.5,0.479,740.5,01.18,0.508
2015-08-16 02:01:00,1716E-3,5C000000,-0724,0821,12272,027.0,045.4,0.479,740.5,01.18,0.508
2015-08-16 02:02:00,1524E-3,5C000000,-0724,0822,12264,027.0,045.4,0.479,740.5,01.18,0.508
2015-08-16 02:03:00,1574E-3,5C000000,-0724,0821,12343,027.0,045.4,0.479,740.5,01.18,0.508
2015-08-16 02:04:00,1575E-3,5C000000,-0724,0821,12379,027.0,045.4,0.479,740.5,01.18,0.508
2015-08-16 02:05:00,1605E-3,5C000000,-0724,0822,12357,027.0,045.4,0.479,740.5,01.18,0.508
2015-08-16 02:06:00,1599E-3,5C000000,-0724,0821,12496,027.0,045.4,0.479,740.6,01.18,0.508
2015-08-16 02:07:00,1530E-3,5C000000,-0724,0822,12335,027.0,045.4,0.479,740.5,01.18,0.508
2015-08-16 02:08:00,1707E-3,5C000000,-0724,0822,12316,027.0,045.4,0.479,740.5,01.18,0.508
2015-08-16 02:09:00,1672E-3,5C000000,-0724,0821,12404,027.0,045.4,0.479,740.6,01.18,0.508
2015-08-16 02:10:00,1537E-3,5C000000,-0724,0821,12238,027.0,045.4,0.479,740.5,01.18,0.508
2015-08-16 02:11:00,1619E-3,5C000000,-0724,0821,12183,027.0,045.4,0.479,740.6,01.18,0.508
2015-08-16 02:12:00,1698E-3,5C000000,-0724,0822,12289,027.0,045.4,0.479,740.6,01.18,0.508
2015-08-16 02:13:00,1568E-3,5C000000,-0724,0821,12335,027.0,045.4,0.479,740.5,01.18,0.508
2015-08-16 02:14:00,1697E-3,5C000000,-0724,0821,12370,027.0,045.4,0.479,740.2,01.18,0.508
2015-08-16 02:15:00,1711E-3,5C000000,-0724,0821,12338,027.0,045.4,0.479,740.4,01.18,0.508
2015-08-16 02:16:00,1602E-3,5C000000,-0724,0822,12236,027.0,045.4,0.479,740.5,01.18,0.508
2015-08-16 02:17:00,1621E-3,5C000000,-0724,0821,12260,027.1,045.4,0.479,740.4,01.18,0.508
2015-08-16 02:18:00,1723E-3,5C000000,-0724,0822,12176,027.0,045.4,0.479,740.5,01.18,0.508
2015-08-16 02:19:00,1686E-3,5C000000,-0724,0822,12164,027.0,045.4,0.479,740.4,01.18,0.508
2015-08-16 02:20:00,1587E-3,5C000000,-0724,0821,12321,027.1,045.4,0.479,740.5,01.18,0.508
2015-08-16 02:21:00,1568E-3,5C000000,-0724,0821,12340,027.1,045.4,0.478,740.5,01.18,0.508
2015-08-16 02:22:00,1642E-3,5C000000,-0724,0822,12276,027.1,045.4,0.479,740.5,01.18,0.508
2015-08-16 02:23:00,1565E-3,5C000000,-0724,0821,12398,027.1,045.4,0.479,740.5,01.18,0.508
2015-08-16 02:24:00,1674E-3,5C000000,-0724,0822,12328,027.1,045.4,0.478,740.4,01.18,0.508
2015-08-16 02:25:00,1655E-3,5C000000,-0724,0821,12121,027.1,045.4,0.479,740.5,01.18,0.508
2015-08-16 02:26:00,1700E-3,5C000000,-0724,0821,12303,027.1,045.4,0.479,740.5,01.18,0.508
2015-08-16 02:27:00,1578E-3,5C000000,-0724,0821,12260,027.1,045.4,0.478,740.5,01.18,0.508
2015-08-16 02:28:00,1482E-3,5C000000,-0724,0822,12373,027.0,045.4,0.479,740.5,01.18,0.508
2015-08-16 02:29:00,1710E-3,5C000000,-0724,0823,12278,027.1,045.4,0.479,740.6,01.18,0.508
2015-08-16 02:30:00,1619E-3,5C000000,-0724,0821,12227,027.1,045.4,0.478,740.5,01.18,0.508
2015-08-16 02:31:00,1551E-3,5C000000,-0724,0821,12245,027.1,045.4,0.479,740.5,01.18,0.508
2015-08-16 02:32:00,1628E-3,5C000000,-0724,0822,12303,027.1,045.4,0.479,740.6,01.18,0.508
2015-08-16 02:33:00,1518E-3,5C000000,-0724,0821,12253,027.1,045.4,0.478,740.5,01.18,0.508
2015-08-16 02:34:00,1647E-3,5C000000,-0724,0822,12239,027.1,045.4,0.479,740.5,01.18,0.508
2015-08-16 02:35:00,1634E-3,5C000000,-0724,0821,12192,027.1,045.4,0.479,740.5,01.18,0.508
2015-08-16 02:36:00,1566E-3,5C000000,-0724,0822,12180,027.1,045.4,0.478,740.5,01.18,0.508
2015-08-16 02:37:00,1480E-3,5C000000,-0724,0821,12214,027.1,045.4,0.479,740.6,01.18,0.508
2015-08-16 02:38:00,1641E-3,5C000000,-0724,0822,12467,027.1,045.4,0.479,740.5,01.18,0.508
2015-08-16 02:39:00,1627E-3,5C000000,-0724,0822,12218,027.1,045.4,0.479,740.6,01.18,0.508
2015-08-16 02:40:00,1627E-3,5C000000,-0724,0822,12195,027.1,045.4,0.479,740.5,01.18,0.508
2015-08-16 02:41:00,1495E-3,5C000000,-0724,0822,12350,027.1,045.4,0.479,740.6,01.18,0.508
2015-08-16 02:42:00,1629E-3,5C000000,-0724,0822,12288,027.1,045.5,0.479,740.5,01.18,0.508
2015-08-16 02:43:00,1691E-3,5C000000,-0724,0822,12306,027.1,045.5,0.479,740.5,01.18,0.508
2015-08-16 02:44:00,1556E-3,5C000000,-0724,0823,12335,027.1,045.4,0.478,740.5,01.18,0.508
2015-08-16 02:45:00,1582E-3,5C000000,-0724,0822,12361,027.1,045.4,0.479,740.6,01.18,0.508
2015-08-16 02:46:00,1522E-3,5C000000,-0724,0822,12288,027.1,045.4,0.479,740.6,01.18,0.508
2015-08-16 02:47:00,1630E-3,5C000000,-0724,0821,12257,027.1,045.4,0.478,740.6,01.18,0.508
2015-08-16 02:48:00,1568E-3,5C000000,-0724,0822,12261,027.2,045.5,0.479,740.6,01.18,0.508
2015-08-16 02:49:00,1497E-3,5C000000,-0724,0822,12320,027.1,045.4,0.479,740.5,01.18,0.508
2015-08-16 02:50:00,1746E-3,5C000000,-0724,0821,12407,027.1,045.4,0.479,740.6,01.18,0.508
2015-08-16 02:51:00,1847E-3,5C000000,-0724,0822,12209,027.2,045.4,0.479,740.5,01.18,0.508
2015-08-16 02:52:00,1561E-3,5C000000,-0724,0822,12449,027.2,045.4,0.478,740.6,01.18,0.508
2015-08-16 02:53:00,1642E-3,5C000000,-0724,0822,12137,027.1,045.4,0.479,740.5,01.18,0.508
2015-08-16 02:54:00,1747E-3,5C000000,-0724,0822,12377,027.2,045.4,0.479,740.5,01.18,0.508
2015-08-16 02:55:00,1688E-3,5C000000,-0724,0822,12319,027.2,045.4,0.478,740.6,01.18,0.508
2015-08-16 02:56:00,1442E-3,5C000000,-0724,0822,12354,027.2,045.4,0.479,740.5,01.18,0.508
2015-08-16 02:57:00,1602E-3,5C000000,-0724,0822,12225,027.2,045.4,0.479,740.4,01.18,0.508
2015-08-16 02:58:00,1716E-3,5C000000,-0724,0822,12333,027.2,045.4,0.478,740.5,01.18,0.508
2015-08-16 02:59:00,1531E-3,5C000000,-0724,0821,12308,027.2,045.4,0.479,740.6,01.18,0.508
2015-08-16 03:00:00,1583E-3,5C000000,-0724,0821,12203,027.2,045.4,0.478,740.5,01.18,0.508
2015-08-16 03:01:00,1655E-3,5C000000,-0724,0822,12144,027.2,045.4,0.479,740.5,01.18,0.508
2015-08-16 03:02:00,1764E-3,5C000000,-0724,0821,12214,027.2,045.4,0.479,740.6,01.18,0.508
2015-08-16 03:03:00,1793E-3,5C000000,-0724,0821,12122,027.2,045.4,0.478,740.5,01.18,0.508
2015-08-16 03:04:00,1733E-3,5C000000,-0724,0822,12330,027.2,045.4,0.479,740.5,01.18,0.508
2015-08-16 03:05:00,1627E-3,5C000000,-0724,0821,12279,027.2,045.4,0.479,740.6,01.18,0.508
2015-08-16 03:06:00,1649E-3,5C000000,-0724,0821,12403,027.2,045.4,0.478,740.5,01.18,0.508
2015-08-16 03:07:00,1596E-3,5C000000,-0724,0821,12531,027.2,045.4,0.479,740.5,01.18,0.508
2015-08-16 03:08:00,1581E-3,5C000000,-0724,0821,12338,027.2,045.4,0.478,740.5,01.18,0.508
2015-08-16 03:09:00,1649E-3,5C000000,-0724,0820,12237,027.2,045.4,0.479,740.5,01.18,0.508
2015-08-16 03:10:00,1623E-3,5C000000,-0724,0821,12685,027.2,045.5,0.479,740.5,01.18,0.508
2015-08-16 03:11:00,1722E-3,5C000000,-0724,0824,12418,027.2,045.4,0.478,740.5,01.18,0.508
2015-08-16 03:12:00,1727E-3,5C000000,-0724,0822,12256,027.2,045.4,0.479,740.5,01.18,0.508
2015-08-16 03:13:00,1582E-3,5C000000,-0724,0822,12160,027.2,045.4,0.479,740.5,01.18,0.508
2015-08-16 03:14:00,1627E-3,5C000000,-0724,0821,12339,027.2,045.4,0.478,740.5,01.18,0.508
2015-08-16 03:15:00,1731E-3,5C000000,-0724,0822,12317,027.2,045.4,0.479,740.5,01.18,0.508
2015-08-16 03:16:00,1651E-3,5C000000,-0724,0822,12176,027.2,045.4,0.478,740.3,01.18,0.508
2015-08-16 03:17:00,1639E-3,5C000000,-0724,0823,12403,027.2,045.4,0.478,740.3,01.18,0.508
2015-08-16 03:18:00,1649E-3,5C000000,-0724,0821,12344,027.2,045.4,0.479,740.4,01.18,0.508
2015-08-16 03:19:00,1583E-3,5C000000,-0724,0821,12214,027.2,045.4,0.478,740.4,01.18,0.508
2015-08-16 03:20:00,1705E-3,5C000000,-0724,0823,12296,027.2,045.4,0.479,740.5,01.18,0.508
2015-08-16 03:21:00,1629E-3,5C000000,-0724,0821,12232,027.2,045.4,0.479,740.4,01.18,0.508
2015-08-16 03:22:00,1406E-3,5C000000,-0724,0821,12314,027.2,045.4,0.478,740.4,01.18,0.508
2015-08-16 03:23:00,1665E-3,5C000000,-0724,0822,12322,027.2,045.4,0.479,740.3,01.18,0.508
2015-08-16 03:24:00,1634E-3,5C000000,-0724,0822,12288,027.2,045.4,0.479,740.2,01.18,0.508
2015-08-16 03:25:00,1512E-3,5C000000,-0724,0822,12431,027.2,045.4,0.478,740.2,01.18,0.508
2015-08-16 03:26:00,1718E-3,5C000000,-0724,0822,12291,027.2,045.5,0.479,740.2,01.18,0.508
2015-08-16 03:27:00,1697E-3,5C000000,-0724,0821,12265,027.2,045.5,0.478,740.2,01.18,0.508
2015-08-16 03:28:00,1595E-3,5C000000,-0724,0821,12298,027.2,045.4,0.479,740.3,01.18,0.508
2015-08-16 03:29:00,1534E-3,5C000000,-0724,0822,12415,027.2,045.4,0.479,740.3,01.18,0.508
2015-08-16 03:30:00,1536E-3,5C000000,-0724,0821,12208,027.2,045.4,0.478,740.3,01.18,0.508
2015-08-16 03:31:00,1703E-3,5C000000,-0724,0821,12245,027.2,045.4,0.479,740.2,01.18,0.508
2015-08-16 03:32:00,1625E-3,5C000000,-0724,0823,12313,027.2,045.4,0.479,740.3,01.18,0.508
2015-08-16 03:33:00,1626E-3,5C000000,-0724,0822,11209,027.2,045.4,0.478,740.3,01.18,0.508
2015-08-16 03:34:00,1531E-3,5C000000,-0724,0822,12279,027.2,045.4,0.479,740.3,01.18,0.508
2015-08-16 03:35:00,1624E-3,5C000000,-0724,0822,12273,027.2,045.5,0.478,740.4,01.18,0.508
2015-08-16 03:36:00,1608E-3,5C000000,-0724,0822,12213,027.2,045.5,0.478,740.2,01.18,0.508
2015-08-16 03:37:00,1537E-3,5C000000,-0724,0822,12314,027.2,045.4,0.479,740.3,01.18,0.508
2015-08-16 03:38:00,1545E-3,5C000000,-0724,0822,12131,027.2,045.4,0.478,740.3,01.18,0.508
2015-08-16 03:39:00,1663E-3,5C000000,-0724,0822,12268,027.2,045.4,0.479,740.2,01.18,0.508
2015-08-16 03:40:00,1611E-3,5C000000,-0724,0821,12196,027.2,045.4,0.479,740.2,01.18,0.508
2015-08-16 03:41:00,1668E-3,5C000000,-0724,0821,12364,027.2,045.4,0.478,740.2,01.18,0.508
2015-08-16 03:42:00,1599E-3,5C000000,-0724,0821,12232,027.2,045.4,0.478,740.2,01.18,0.508
2015-08-16 03:43:00,1531E-3,5C000000,-0724,0821,12235,027.2,045.4,0.479,740.2,01.18,0.508
2015-08-16 03:44:00,1659E-3,5C000000,-0724,0822,12208,027.2,045.4,0.478,740.2,01.18,0.508
2015-08-16 03:45:00,1642E-3,5C000000,-0724,0822,12203,027.2,045.5,0.479,740.2,01.18,0.508
2015-08-16 03:46:00,1461E-3,5C000000,-0724,0822,12233,027.2,045.4,0.479,740.2,01.18,0.508
2015-08-16 03:47:00,1637E-3,5C000000,-0724,0822,12243,027.2,045.4,0.478,740.3,01.18,0.508
2015-08-16 03:48:00,1594E-3,5C000000,-0724,0822,12256,027.2,045.4,0.479,740.2,01.18,0.508
2015-08-16 03:49:00,1680E-3,5C000000,-0724,0822,12274,027.2,045.4,0.479,740.2,01.18,0.508
2015-08-16 03:50:00,1452E-3,5C000000,-0724,0821,12310,027.2,045.4,0.478,740.2,01.18,0.508
2015-08-16 03:51:00,1647E-3,5C000000,-0724,0822,12324,027.2,045.4,0.479,740.2,01.18,0.508
2015-08-16 03:52:00,1541E-3,5C000000,-0724,0822,12440,027.2,045.4,0.478,740.2,01.18,0.508
2015-08-16 03:53:00,1622E-3,5C000000,-0724,0821,12374,027.2,045.4,0.478,740.2,01.18,0.508
2015-08-16 03:54:00,1636E-3,5C000000,-0724,0821,12396,027.2,045.4,0.479,740.2,01.18,0.508
2015-08-16 03:55:00,1703E-3,5C000000,-0724,0821,12316,027.2,045.4,0.478,740.1,01.18,0.508
2015-08-16 03:56:00,1643E-3,5C000000,-0724,0822,12212,027.2,045.4,0.478,740.1,01.18,0.508
2015-08-16 03:57:00,1633E-3,5C000000,-0724,0821,12305,027.2,045.4,0.479,740.1,01.18,0.508
2015-08-16 03:58:00,1622E-3,5C000000,-0724,0821,12246,027.2,045.4,0.478,740.1,01.18,0.508
2015-08-16 03:59:00,1610E-3,5C000000,-0724,0822,12141,027.2,045.4,0.478,740.1,01.18,0.508
2015-08-16 04:00:00,1617E-3,5C000000,-0724,0820,12365,027.3,045.4,0.479,740.1,01.18,0.508
2015-08-16 04:01:00,1616E-3,5C000000,-0724,0822,12266,027.2,045.4,0.478,740.0,01.18,0.508
2015-08-16 04:02:00,1566E-3,5C000000,-0724,0819,12185,027.2,045.4,0.478,740.1,01.18,0.508
2015-08-16 04:03:00,1618E-3,5C000000,-0724,0821,12308,027.2,045.4,0.479,740.1,01.18,0.508
2015-08-16 04:04:00,1534E-3,5C000000,-0724,0821,12148,027.3,045.5,0.478,740.1,01.18,0.508
2015-08-16 04:05:00,1614E-3,5C000000,-0724,0821,12363,027.3,045.5,0.478,740.1,01.18,0.508
2015-08-16 04:06:00,1539E-3,5C000000,-0724,0822,12161,027.2,045.4,0.479,740.0,01.18,0.508
2015-08-16 04:07:00,1740E-3,5C000000,-0724,0822,12272,027.2,045.4,0.478,740.0,01.18,0.508
2015-08-16 04:08:00,1693E-3,5C000000,-0724,0822,12290,027.3,045.4,0.478,740.0,01.18,0.508
2015-08-16 04:09:00,1674E-3,5C000000,-0724,0821,12232,027.2,045.4,0.479,740.0,01.18,0.508
2015-08-16 04:10:00,1633E-3,5C000000,-0724,0821,12290,027.2,045.4,0.478,740.0,01.18,0.508
2015-08-16 04:11:00,1616E-3,5C000000,-0724,0821,12350,027.2,045.4,0.478,740.0,01.18,0.508
2015-08-16 04:12:00,1611E-3,5C000000,-0724,0822,12353,027.2,045.4,0.479,740.1,01.18,0.508
2015-08-16 04:13:00,1610E-3,5C000000,-0724,0821,12288,027.2,045.5,0.478,740.1,01.18,0.508
2015-08-16 04:14:00,1652E-3,5C000000,-0724,0822,12259,027.2,045.5,0.478,740.0,01.18,0.508
2015-08-16 04:15:00,1540E-3,5C000000,-0724,0821,12445,027.2,045.5,0.479,740.0,01.18,0.508
2015-08-16 04:16:00,1612E-3,5C000000,-0724,0822,12286,027.2,045.4,0.478,740.0,01.18,0.508
2015-08-16 04:17:00,1591E-3,5C000000,-0724,0821,12147,027.2,045.5,0.478,740.1,01.18,0.508
2015-08-16 04:18:00,1694E-3,5C000000,-0724,0821,12274,027.2,045.5,0.479,740.0,01.18,0.508
2015-08-16 04:19:00,1738E-3,5C000000,-0724,0821,12186,027.2,045.4,0.478,740.0,01.18,0.508
2015-08-16 04:20:00,1599E-3,5C000000,-0724,0822,12187,027.2,045.4,0.478,740.0,01.18,0.508